Погода в Орле

Россия / Орловская область     52°58′13″N   36°03′49″E
темп.,
°C
ветер,
м/с
пор.,
м/с
влажн.,
%
обл.,
%
осадки,
мм/ч
давл.,
гПа
погр.,
м
20 апреля, вт
вт2000:00+6всв51092100 0.8 1017569
03:00+6всв599199 0.8 1016405
06:00+6всв61195100 0.5 1015490
09:00+7в61189100 1.3 1014564
12:00+10в6969100 0.0 10131264
15:00+8всв7886100 0.1 1011774
18:00+6св61091100 0.0 1009616
21:00+5св61094100 0.4 1007591
21 апреля, ср
ср2100:00+3ссв5797100 2.8 1005590
03:00+2ссз3599100 5.1 1004293
06:00+2зсз3699100 0.3 1004427
09:00+3зюз4897100 0.3 1006545
12:00+5зюз6885100 0.1 1008862
15:00+7зюз6874100 0.2 10091075
18:00+6зюз4882100 0.1 1011589
21:00+5юз358994 0.2 1013139
22 апреля, чт
чт2200:00+4ююз349136 0.0 101471
03:00+3юз349458 0.0 101567
06:00+2ююз349434 0.0 101666
09:00+7юз35809 0.0 1017468
12:00+11юз455950 0.1 10171536
15:00+13ююз345024 0.1 10161661
18:00+12ююз57679 0.1 1017512
21:00+8ююз37905 0.1 1018135
23 апреля, пт
пт2300:00+7ююв48935 0.0 1017162
03:00+7ю499376 0.0 1017180
06:00+7ю4119153 0.1 1017267
09:00+12ююз697629 0.2 1017465
12:00+16ююз811527 0.0 10161661
15:00+17ю7115169 0.0 10142403
18:00+14ю8126398 1.3 10131078
21:00+11ююз7157769 1.9 1013716
24 апреля, сб
сб2400:00+9юз61189100 1.1 1012654
03:00+5сз4492100 1.8 1012517
06:00+2зсз4898100 3.6 1012375
09:00+6юз4682100 2.9 1015772
12:00+9зюз6859100 0.3 10141847
15:00+8зюз9105798 0.6 10141919
18:00+6з810615 0.0 10151408
21:00+3з39760 0.0 1017254